Location: Washington
(38.8950°N, 77.0370°W)
Time: 04:30:31
(UTC-04:00)

Daily predictions for brighter satellites

Satellite Brightness Start Highest point End
(mag) Time Altitude Azimuth Time Altitude Azimuth Time Altitude Azimuth
ALOS 2 4.0 00:07:04 32° NE 00:07:04 32° NE 00:10:12 10° N
USA 267 3.1 00:00:45 10° NE 00:07:18 75° SE 00:07:57 69° S
Cosmos 1605 Rocket 4.2 00:02:39 10° N 00:08:36 53° E 00:08:50 52° E
Cosmos 1535 Rocket 4.3 00:07:26 10° N 00:13:33 78° W 00:13:53 75° SW
SeaSat 1 3.4 00:13:54 39° ENE 00:14:00 39° ENE 00:18:34 10° N
Cosmos 1953 3.9 00:12:27 10° NNW 00:15:05 33° NW 00:15:05 33° NW
Lacrosse 5 2.4 00:17:43 52° NE 00:17:43 52° NE 00:21:33 10° NE
NOSS 3-1 (C) 4.1 00:09:10 10° NNW 00:16:53 78° NE 00:18:59 54° SE
Meteor 2-5 Rocket 3.9 00:20:16 68° E 00:20:16 68° E 00:25:57 10° NNE
Cosmos 2251 Rocket 3.7 00:21:41 72° NW 00:21:41 72° NW 00:26:48 10° NNE
SME Rocket 3.7 00:22:22 65° NW 00:22:22 65° NW 00:25:59 10° NNW
Cosmos 2360 Rocket 3.3 00:17:01 10° N 00:22:10 34° ENE 00:22:52 33° ENE
Cosmos 1980 Rocket 3.4 00:18:15 10° NW 00:22:51 31° W 00:22:51 31° W
Cosmos-2242 4.1 00:21:26 10° N 00:24:20 42° NNW 00:24:20 42° NNW
Cosmos 2098 Rocket 3.7 00:27:09 10° N 00:31:25 68° NNE 00:31:25 68° NNE
Cosmos 2322 Rocket 2.3 00:28:59 10° NNW 00:34:12 70° WNW 00:34:12 70° WNW
Meteor 1-16 Rocket 4.2 00:32:13 10° N 00:37:09 71° NNE 00:37:09 71° NNE
Lacrosse 5 rocket 2.6 00:36:39 10° NW 00:40:10 45° N 00:40:10 45° N
Cosmos 2221 4.4 00:43:35 10° NNE 00:46:08 24° NE 00:46:08 24° NE
NOSS 3-1 (A) 4.0 00:42:33 10° NW 00:50:19 88° WSW 00:51:52 64° SSE
CZ-3B R/B 4.4 00:52:52 78° E 00:52:52 78° E 01:06:01 10° NE
CZ-2C R/B 2.9 00:47:47 10° N 00:53:10 67° WNW 00:53:10 67° WNW
USA 32 4.5 00:54:04 56° NW 00:54:04 56° NW 00:58:40 10° N
Meteor 1-24 Rocket 3.8 00:56:31 82° NE 00:56:31 82° NE 01:02:22 10° N
Cosmos 2219 Rocket 4.2 01:00:48 10° N 01:05:07 22° NE 01:07:42 16° E
Cosmos 1802 Rocket 4.4 01:00:32 10° N 01:06:37 51° ENE 01:07:01 50° E
Cosmos 2100 Rocket 4.0 01:04:23 10° N 01:10:33 70° E 01:10:40 70° E
ATLAS CENTAUR R/B 4.1 01:10:49 10° NW 01:10:49 10° NW 01:10:49 10° NW
SL-16 R/B 3.7 01:22:07 10° NW 01:25:26 24° W 01:25:26 24° W
Cosmos 2061 Rocket 3.9 01:23:19 10° N 01:29:34 84° E 01:29:44 82° ESE
Cosmos 2123 Rocket 4.2 01:35:29 56° ESE 01:35:46 57° E 01:41:48 10° NNE
In-Cosmos 22 4.5 01:37:49 57° NW 01:37:49 57° NW 01:42:49 10° N
Cosmos 407 Rocket 4.1 01:38:24 48° ENE 01:38:24 48° ENE 01:42:33 10° NNE
Cosmos 2227 Rocket 3.7 01:41:02 25° E 01:41:02 25° E 01:45:17 10° NE
H-2A R/B 3.5 01:43:58 10° NNE 01:47:01 46° NNE 01:47:01 46° NNE
SeaSat 1 4.3 01:53:41 20° WNW 01:53:41 20° WNW 01:55:41 10° NW
Cosmos 2322 4.3 01:46:59 10° NNW 01:51:19 44° WNW 01:51:19 44° WNW
Meteor 1-21 Rocket 4.2 01:55:16 84° W 01:55:17 84° W 02:01:12 10° N
Cosmos 2237 4.4 01:50:30 10° NNW 01:55:24 59° WNW 01:55:24 59° WNW
Cosmos 1190 Rocket 4.1 01:57:46 75° N 01:57:46 75° N 02:02:40 10° NNE
ISS -0.8 01:56:33 10° NNW 01:57:37 16° N 01:57:37 16° N
Lacrosse 5 4.1 01:56:52 12° WNW 02:00:04 20° NNW 02:03:49 10° NNE
Cosmos 2219 3.3 02:04:29 63° WNW 02:04:32 63° WNW 02:10:08 10° NNE
Cosmos 1725 Rocket 3.9 01:58:26 10° N 02:04:49 86° E 02:05:28 73° SSE
Cosmos 2360 Rocket 3.5 02:01:07 10° NW 02:04:36 28° WNW 02:04:36 28° WNW
Cosmos 1408 Rocket 4.4 02:10:56 46° NNW 02:10:56 46° NNW 02:14:08 10° N
COSMOS 2428 2.8 02:04:40 10° NNW 02:09:55 65° WNW 02:09:55 65° WNW
SL-08 R/B 4.4 02:05:41 10° NNW 02:11:46 70° W 02:12:03 69° WSW
Cosmos 2082 4.4 02:11:45 39° ESE 02:11:55 39° ESE 02:17:06 10° NE
Cosmos 2333 4.3 02:11:14 10° NNW 02:16:29 65° W 02:16:29 65° W
Cosmos 1500 Rocket 4.4 02:17:41 45° ENE 02:17:41 45° ENE 02:21:26 10° NNE
USA 234 3.1 02:21:19 47° SSE 02:23:25 80° SW 02:30:00 10° NW
Lacrosse 4 Rocket 4.0 02:26:30 11° E 02:26:30 11° E 02:27:19 10° E
ATLAS 3B CENTAUR R/B 4.3 02:04:03 10° WSW 02:27:31 52° S 02:36:01 10° ESE
DELTA 2 R/B (1) 3.9 02:34:21 51° SE 02:34:21 51° SE 02:39:00 10° E
Meteor 2-2 Rocket 4.0 02:28:14 10° NNW 02:33:52 78° W 02:34:13 75° SW
NOSS 2-1 (D) 4.1 02:34:53 50° NE 02:34:53 50° NE 02:38:03 10° NE
NOSS 2-1 (C) 4.1 02:35:03 49° NE 02:35:03 49° NE 02:38:11 10° NE
Cosmos 1626 3.7 02:35:05 30° ENE 02:35:05 30° ENE 02:37:53 10° NNE
BREEZE-M DEB 4.0 02:35:29 42° ESE 02:35:29 42° ESE 02:37:44 10° ENE
PSLV R/B 4.4 02:34:18 10° N 02:37:38 42° NW 02:37:38 42° NW
Cosmos 1515 Rocket 3.7 02:34:29 10° N 02:38:25 70° N 02:38:25 70° N
Cosmos 1743 Rocket 3.9 02:39:35 60° NW 02:39:35 60° NW 02:43:27 10° N
Cosmos 614 Rocket 3.9 02:39:00 69° SE 02:39:20 71° ESE 02:44:33 10° NNE
ATLAS 2AS CENTAUR R/B 2.8 02:33:21 10° NW 02:41:18 72° WSW 02:43:52 44° S
IRS-P3 4.2 02:36:27 10° NNE 02:41:45 65° ESE 02:42:30 58° SE
Cosmos 1140 Rocket 3.3 02:42:01 80° SW 02:42:18 87° WNW 02:47:33 10° NNE
Cosmos 2333 Rocket 2.0 02:36:57 10° NNW 02:42:41 79° WSW 02:43:19 69° S
Cosmos 2297 Rocket 2.1 02:45:42 63° SSE 02:46:30 74° ESE 02:52:09 10° NNE
NOSS 3-3 (A) 4.3 02:45:42 44° W 02:47:22 56° NW 02:53:54 10° NNE
NOSS 3-3 (C) 4.3 02:45:49 44° WSW 02:47:28 57° NW 02:54:00 10° NNE
Cosmos 2219 Rocket 2.3 02:43:52 10° NNW 02:49:22 56° WSW 02:49:22 56° WSW
Cosmos 1980 3.6 02:45:00 10° NNW 02:50:43 89° WSW 02:52:08 53° SSE
Cosmos 2151 3.0 02:51:46 73° N 02:51:46 73° N 02:55:37 10° N
Cosmos 1703 3.8 02:52:13 55° ENE 02:52:13 55° ENE 02:55:44 10° NNE
Aureole 2 Rocket 3.0 02:51:02 10° NNW 02:54:38 69° N 02:54:38 69° N
NOSS 2-1 (E) 3.6 02:57:17 60° NNW 02:57:17 60° NNW 03:01:10 10° NNE
Cosmos 1850 Rocket 3.9 02:56:14 62° SSE 02:56:59 74° ESE 03:02:10 10° NNE
VEP-3 4.3 02:39:42 10° W 03:02:23 24° SSE 03:05:01 10° SE
Cosmos 1726 4.2 02:57:52 10° NNW 02:59:25 20° NW 02:59:25 20° NW
SL-16 R/B 3.2 02:58:18 15° SE 03:03:18 52° ENE 03:09:16 10° N
Cosmos 1741 Rocket 4.0 03:02:50 60° S 03:03:49 83° ESE 03:09:11 10° NNE
NPP 3.5 02:58:48 10° NNE 03:04:13 86° WNW 03:05:22 57° SSW
Cosmos 1356 4.1 03:07:02 54° ENE 03:07:02 54° ENE 03:10:07 10° NNE
Cosmos 2237 Rocket 2.1 03:03:41 10° NNW 03:09:17 68° WSW 03:10:33 51° SSW
SL-16 R/B 2.9 03:05:23 10° NNW 03:10:56 52° ENE 03:16:27 10° SE
CZ-3B DEB 4.4 03:03:30 33° SSW 03:11:16 72° SE 03:25:37 10° NE
Cosmos 1151 Rocket 3.3 03:07:13 10° NNW 03:11:07 52° WNW 03:11:07 52° WNW
Meteor 2-10 4.5 03:10:16 10° NNW 03:15:05 42° W 03:15:17 42° W
ADEOS 4.2 03:11:46 10° NNE 03:16:50 48° E 03:19:06 30° SSE
CBERS-1 4.0 03:14:03 10° N 03:19:08 67° WNW 03:20:18 50° SW
Resurs 1-4 Rocket 2.4 03:16:07 10° NNE 03:21:24 61° ESE 03:23:39 33° SSE
Cosmos 1570 Rocket 4.0 03:16:22 10° NNW 03:21:45 89° WSW 03:24:21 32° SSE
Cosmos 2034 Rocket 4.2 03:16:43 10° N 03:23:04 71° E 03:27:38 20° SSE
Cosmos 2227 Rocket 2.9 03:22:51 34° W 03:24:30 42° WNW 03:29:52 10° N
ARIANE 5 R/B 2.8 03:21:17 10° NNE 03:26:20 61° E 03:28:27 33° SSE
Cosmos 2058 3.8 03:32:09 32° WNW 03:32:09 32° WNW 03:35:52 10° NNW
ERS-1 4.4 03:30:46 10° NNE 03:35:56 88° WNW 03:38:01 37° SSW
UNK 3.6 03:34:33 32° SSE 03:36:40 89° E 03:41:19 10° NNW
COBE Rocket 3.7 03:33:20 10° N 03:38:01 86° W 03:39:37 41° SSW
Cosmos 1707 Rocket 3.5 03:35:07 10° N 03:39:31 81° E 03:41:37 31° SSE
Tsikada Rocket 4.1 03:36:41 25° S 03:40:37 79° E 03:47:03 10° N
CZ-2D R/B 2.0 03:37:40 10° NNE 03:42:54 87° WNW 03:45:23 33° SSW
Cosmos 1666 Rocket 3.5 03:50:56 37° SSW 03:52:36 74° W 03:57:04 10° N
BREEZE-M R/B 4.2 03:49:03 27° SSW 03:52:55 52° SE 03:57:02 10° ENE
Cosmos 1455 2.8 03:52:17 10° NNW 03:55:53 37° W 03:56:14 36° WSW
SL-08 R/B 4.4 03:57:02 27° WSW 03:57:38 28° W 04:01:52 10° NW
GPS 2-04 Rocket1 4.2 04:01:30 22° S 04:01:30 22° S 04:03:46 10° SE
USA 161 3.7 03:59:27 11° ESE 04:00:41 16° ENE 04:02:00 10° NNE
Cosmos 1933 Rocket 4.4 03:58:53 14° SSE 04:02:32 49° E 04:06:50 10° NNE
Lacrosse 4 Rocket 1.6 04:02:51 34° SW 04:04:25 58° WNW 04:08:35 10° NNE
Spot 4 Rocket 4.5 04:00:09 10° N 04:05:03 46° WNW 04:07:35 26° SW
Cosmos 1400 Rocket 4.4 04:03:03 10° SSE 04:06:32 32° E 04:10:04 10° NNE
Cosmos 468 Rocket 3.9 04:04:17 10° NNW 04:09:29 79° WSW 04:14:36 10° SSE
Cosmos 1626 4.2 04:09:45 14° WNW 04:10:00 14° WNW 04:12:00 10° NW
Cosmos 371 Rocket 3.8 04:08:00 10° NNW 04:12:47 61° ENE 04:17:30 10° SSE
ORS 1 (USA 231) 4.4 04:12:41 35° W 04:13:49 86° NNW 04:16:55 10° E
ADEOS Rocket 4.0 04:08:01 10° N 04:15:08 48° WNW 04:20:34 19° SW
DELTA 2 R/B (1) 3.6 04:15:05 14° W 04:19:56 85° N 04:25:31 10° E
IRS-1D 4.3 04:15:26 10° N 04:20:20 38° WNW 04:23:25 20° SW
Cosmos 1869 4.0 04:19:38 10° NNW 04:23:20 35° W 04:25:10 23° SW
Cosmos 1634 Rocket 4.0 04:22:30 10° N 04:28:44 90° W 04:34:53 10° S
Cosmos 1763 Rocket 3.5 04:24:55 10° NNW 04:30:11 86° ENE 04:35:20 10° SSE
Cosmos 2297 Rocket 4.1 04:27:35 10° W 04:31:09 17° NW 04:34:45 10° NNW
CZ-2D R/B 3.6 04:27:33 10° N 04:31:32 57° WNW 04:34:35 17° SSW
Okean O Rocket 3.1 04:28:43 10° NNE 04:32:42 35° E 04:36:39 10° SSE
NOSS 3-4 (A) 3.9 04:25:57 10° NW 04:32:58 62° WSW 04:40:24 10° SSE
NOSS 3-4 (C) 3.9 04:26:03 10° NW 04:33:04 63° WSW 04:40:31 10° SSE
Cosmos 1603 3.7 04:28:14 10° NNW 04:33:59 88° ENE 04:39:39 10° SSE
Cosmos 1814 Rocket 4.0 04:28:44 10° NNW 04:34:03 67° WSW 04:39:20 10° S
GP-B 3.8 04:30:53 10° N 04:35:16 56° E 04:39:37 10° S
Sich 1 4.4 04:34:32 17° WSW 04:36:39 24° WNW 04:40:12 10° NNW
Cosmos 1633 Rocket 4.1 04:34:27 18° WSW 04:36:46 28° WNW 04:40:33 10° NNW
Cosmos 1470 Rocket 3.6 04:33:52 15° SSW 04:37:15 57° W 04:41:32 10° N
CZ-4B R/B 4.0 04:36:24 10° NNE 04:40:37 45° E 04:44:37 10° S
USA 102 2.9 04:40:03 10° NNE 04:43:15 59° ESE 04:44:06 25° S
PSLV R/B 4.2 04:42:26 10° NNE 04:46:26 66° ESE 04:50:17 10° S
SL-16 R/B 3.6 04:43:24 14° SW 04:47:11 23° W 04:51:59 10° NW
Cosmos 332 Rocket 4.1 04:43:29 10° NNW 04:48:05 45° WSW 04:52:42 10° S
UNKNOWN OBJECT B 4.0 04:46:33 10° NNW 04:49:59 28° WNW 04:52:49 13° SW
MOS 1 Rocket 4.0 04:45:13 10° N 04:50:09 46° WNW 04:55:16 10° SW
ATLAS 5 CENTAUR R/B 1.9 04:49:34 11° SSW 04:54:04 78° ESE 04:59:05 10° NE
SL-16 R/B 3.5 04:50:32 10° NW 04:54:35 20° W 04:58:38 10° SW
Abrixas rocket 4.0 04:52:15 10° S 04:54:54 23° SE 04:57:34 10° E
SL-24 R/B 4.2 04:53:55 10° N 04:57:33 43° WNW 05:01:01 10° SW
CZ-4B R/B 3.8 04:53:19 10° NNE 04:58:34 57° ESE 05:03:51 10° S
Cosmos 1354 Rocket 4.0 04:53:49 10° SSW 04:59:07 84° WNW 05:04:26 10° NNE
Resurs 1-4 Rocket 3.9 04:57:21 10° NNW 05:00:41 17° WNW 05:04:03 10° WSW
Cosmos 1315 Rocket 2.9 04:57:55 10° S 05:01:58 83° E 05:05:59 10° N
ARIANE 5 R/B 4.3 05:01:56 10° NNW 05:04:54 16° WNW 05:07:50 10° W
PSLV R/B 3.8 05:01:43 10° NNE 05:05:57 72° ESE 05:10:06 10° S
ADEOS II 2.1 05:02:20 10° NNE 05:07:37 87° WNW 05:12:52 10° SSW
Okean 1-7 3.8 05:05:30 10° N 05:09:42 55° E 05:13:51 10° SSE
ATLAS 3B CENTAUR R/B 3.8 05:02:35 10° W 05:11:17 25° SW 05:15:35 10° SSE
Meteor 2-3 Rocket 3.8 05:09:30 10° SSW 05:15:09 68° W 05:20:54 10° N
Cosmos 540 Rocket 3.7 05:10:37 10° NNW 05:15:49 80° ENE 05:20:58 10° SSE
CZ-4B DEB 4.3 05:10:42 10° NNE 05:16:11 86° ESE 05:21:40 10° SSW
BREEZE M DEB (TANK) 1.9 05:16:29 10° WSW 05:19:07 67° NNW 05:21:21 10° NE
Cosmos 1346 Rocket 4.1 05:16:43 10° N 05:20:36 46° ENE 05:24:24 10° SSE
Cosmos 1943 3.2 05:15:35 10° NNW 05:21:13 78° WSW 05:26:50 10° SSE
IRS-1C Rocket 4.2 05:16:03 10° NNE 05:21:22 87° WNW 05:26:38 10° SSW
CZ-3 R/B 3.8 05:01:17 10° W 05:34:35 48° SSW 05:42:52 10° SE
